This demonstration page uses our WeatherBlox Daily Observations layout. Learn more.

Left ArrowRight Arrow

Hourly Observations for March 10, 2015

Temp ( °F °C ) Dew Point ( °F °C ) Humidity (%) Winds ( mph kmh ) Pressure ( in mb ) Visibility ( mi km ) Precip ( " mm )
12:15 am 00:15 Clear 37 3 34 1 87 87 N N/A 30.30 1026 10 16 N/A
12:35 am 00:35 Clear 37 3 34 1 87 87 NNE 3 6 30.30 1026 10 16 N/A
12:55 am 00:55 Clear 34 1 32 undefined 93 93 N 3 6 30.30 1026 10 16 N/A
1:15 am 01:15 Clear 36 2 32 undefined 87 87 NNE 3 6 30.30 1026 10 16 N/A
1:35 am 01:35 Clear 36 2 32 undefined 87 87 N N/A 30.30 1026 10 16 N/A
1:55 am 01:55 Clear 36 2 32 undefined 87 87 N N/A 30.30 1026 10 16 N/A
2:15 am 02:15 Clear 36 2 32 undefined 87 87 N N/A 30.27 1025 10 16 N/A
2:35 am 02:35 Clear 36 2 32 undefined 87 87 N 3 6 30.30 1026 10 16 N/A
2:55 am 02:55 Clear 34 1 32 undefined 93 93 N 3 6 30.30 1026 10 16 N/A
3:15 am 03:15 Clear 37 3 34 1 87 87 N N/A 30.30 1026 10 16 N/A
3:35 am 03:35 Clear 34 1 32 undefined 93 93 N N/A 30.27 1025 10 16 N/A
3:55 am 03:55 Clear 34 1 32 undefined 93 93 N N/A 30.27 1025 10 16 N/A
4:15 am 04:15 Clear 32 undefined 32 undefined 100 100 N N/A 30.27 1025 10 16 N/A
4:35 am 04:35 Clear 36 2 32 undefined 87 87 N 3 6 30.27 1025 10 16 N/A
4:55 am 04:55 Clear 34 1 32 undefined 93 93 N 3 6 30.27 1025 10 16 N/A
5:15 am 05:15 Clear 36 2 34 1 93 93 N N/A 30.27 1025 10 16 N/A
5:35 am 05:35 Clear 34 1 32 undefined 93 93 N N/A 30.27 1025 10 16 N/A
5:55 am 05:55 Clear 34 1 32 undefined 93 93 N 3 6 30.30 1026 10 16 N/A
6:15 am 06:15 Clear 37 3 34 1 87 87 N N/A 30.27 1025 10 16 N/A
6:35 am 06:35 Clear 37 3 34 1 87 87 N 3 6 30.27 1025 10 16 N/A
6:55 am 06:55 Mostly Cloudy 36 2 34 1 93 93 N N/A 30.27 1025 10 16 N/A
7:15 am 07:15 Cloudy 36 2 34 1 93 93 N 5 7 30.27 1025 10 16 N/A
7:35 am 07:35 Cloudy 37 3 34 1 87 87 N N/A 30.27 1025 10 16 N/A
7:55 am 07:55 Cloudy 36 2 34 1 93 93 N 3 6 30.27 1025 10 16 N/A
8:15 am 08:15 Mostly Cloudy 37 3 34 1 87 87 N N/A 30.27 1025 10 16 N/A
8:35 am 08:35 Partly Cloudy 37 3 34 1 87 87 N N/A 30.27 1025 10 16 N/A
8:55 am 08:55 Sunny 41 5 34 1 76 76 N N/A 30.27 1025 10 16 N/A
9:15 am 09:15 Sunny 41 5 34 1 76 76 N N/A 30.30 1026 10 16 N/A
9:35 am 09:35 Sunny 41 5 34 1 76 76 N N/A 30.30 1026 10 16 N/A
9:55 am 09:55 Partly Cloudy 43 6 36 2 76 76 N N/A 30.27 1025 10 16 N/A
10:15 am 10:15 Cloudy 43 6 34 1 71 71 N N/A 30.27 1025 10 16 N/A
10:35 am 10:35 Cloudy 43 6 34 1 71 71 N N/A 30.27 1025 10 16 N/A
10:55 am 10:55 Cloudy 45 7 36 2 71 71 N N/A 30.27 1025 10 16 N/A
11:15 am 11:15 Cloudy with Light Rain 45 7 36 2 71 71 N N/A 30.27 1025 10 16 N/A
11:35 am 11:35 Cloudy with Light Rain 45 7 37 3 76 76 S 6 9 30.27 1025 10 16 N/A
11:55 am 11:55 Cloudy with Light Rain 45 7 37 3 76 76 S 5 7 30.27 1025 10 16 N/A
12:15 pm 12:15 Cloudy with Light Rain 45 7 41 5 87 87 S 3 6 30.27 1025 7 11 N/A
12:35 pm 12:35 Cloudy with Light Rain 45 7 41 5 87 87 S 7 11 30.27 1025 5 8 0.02 0.51
12:55 pm 12:55 Cloudy with Rain 43 6 41 5 93 93 S 3 6 30.27 1025 7 11 0.02 0.51
1:15 pm 13:15 Cloudy with Light Rain 43 6 41 5 93 93 N N/A 30.24 1024 7 11 N/A
1:35 pm 13:35 Cloudy with Rain 43 6 41 5 93 93 N N/A 30.24 1024 5 8 0.02 0.51
1:55 pm 13:55 Cloudy with Light Rain 43 6 43 6 100 100 N N/A 30.21 1023 5 8 0.03 0.76
2:15 pm 14:15 Cloudy with Light Rain 43 6 43 6 100 100 N N/A 30.21 1023 4 6 N/A
2:35 pm 14:35 Cloudy with Light Rain 43 6 43 6 100 100 N N/A 30.18 1022 4 6 0.01 0.25
2:55 pm 14:55 Cloudy with Rain 43 6 43 6 100 100 N N/A 30.18 1022 3 5 0.03 0.76
3:15 pm 15:15 Cloudy with Light Rain 43 6 43 6 100 100 N N/A 30.18 1022 4 6 0.01 0.25
3:35 pm 15:35 Cloudy with Light Rain 43 6 43 6 100 100 N N/A 30.15 1021 3 5 0.02 0.51
3:55 pm 15:55 Cloudy with Light Rain 43 6 43 6 100 100 N N/A 30.15 1021 3 4 0.03 0.76
4:15 pm 16:15 Cloudy with Light Rain 43 6 43 6 100 100 N N/A 30.15 1021 4 6 0.01 0.25
4:35 pm 16:35 Cloudy with Light Rain 43 6 43 6 100 100 N N/A 30.15 1021 3 5 0.02 0.51
4:55 pm 16:55 Cloudy with Rain 43 6 43 6 100 100 N N/A 30.15 1021 3 4 0.04 1.02
5:15 pm 17:15 Cloudy with Light Rain 43 6 43 6 100 100 N N/A 30.12 1020 2 3 0.01 0.25
5:35 pm 17:35 Cloudy with Light Rain 43 6 43 6 100 100 N N/A 30.12 1020 3 4 0.02 0.51
5:55 pm 17:55 Cloudy with Light Rain 45 7 45 7 100 100 SSE 5 7 30.12 1020 2 3 0.03 0.76
6:15 pm 18:15 Cloudy with Light Rain 45 7 45 7 100 100 N N/A 30.12 1020 3 4 0.01 0.25
6:35 pm 18:35 Cloudy with Light Rain 43 6 43 6 100 100 S 3 6 30.12 1020 2 3 0.02 0.51
6:55 pm 18:55 Cloudy with Light Rain 43 6 43 6 100 100 S 3 6 30.12 1020 1 2 0.03 0.76
7:15 pm 19:15 Cloudy with Rain 43 6 43 6 100 100 N N/A 30.12 1020 1 2 0.02 0.51
7:35 pm 19:35 Cloudy with Rain 43 6 43 6 100 100 N N/A 30.12 1020 2 2 0.05 1.27
7:55 pm 19:55 Cloudy with Rain 43 6 43 6 100 100 N N/A 30.09 1019 1 2 0.08 2.03
8:15 pm 20:15 Cloudy with Rain 43 6 43 6 100 100 N N/A 30.09 1019 1 2 0.03 0.76
8:35 pm 20:35 Cloudy with Rain 43 6 43 6 100 100 N N/A 30.09 1019 1 1 0.06 1.52
8:55 pm 20:55 Cloudy with Rain 43 6 43 6 100 100 N N/A 30.09 1019 1 2 0.08 2.03
9:15 pm 21:15 Cloudy with Rain 43 6 43 6 100 100 N N/A 30.09 1019 1 2 0.02 0.51
9:35 pm 21:35 Cloudy with Rain 43 6 43 6 100 100 N N/A 30.06 1018 1 1 0.06 1.52
9:55 pm 21:55 Cloudy with Light Rain 43 6 43 6 100 100 N N/A 30.06 1018 1 1 0.07 1.78
10:15 pm 22:15 Cloudy with Light Rain 43 6 43 6 100 100 N N/A 30.06 1018 1 1 N/A
10:35 pm 22:35 Cloudy with Fog 43 6 43 6 100 100 N N/A 30.06 1018 1 1 N/A
10:55 pm 22:55 Cloudy with Light Rain 43 6 43 6 100 100 N N/A 30.06 1018 1 2 N/A
11:15 pm 23:15 Cloudy with Light Rain 43 6 43 6 100 100 N N/A 30.06 1018 1 1 N/A
11:35 pm 23:35 Cloudy with Fog 43 6 43 6 100 100 N N/A 30.03 1017 0 0 0.01 0.25
11:55 pm 23:55 Cloudy with Fog 41 5 41 5 100 100 N N/A 30.03 1017 0 0 0.01 0.25

Powered by AerisWeather